Location: ?astrovice
(49.6513°N, 14.9287°E)
Time: 07:32:45
(UTC+00:00)

BEESAT - Pass Details

Date: 23 October 2021
Orbit: 700 x 707 km, 98.6° (Epoch: 01 December)

Event Time Altitude Azimuth Distance (km) Brightness Sun altitude
Rises 03:55:50 0° 111° (ESE) 3,085 ? -16.6°
Reaches altitude 10° 03:58:58 10° 89° (E) 2,170 ? -16.1°
Maximum altitude 04:01:36 15° 55° (NE) 1,857 ? -15.7°
Drops below altitude 10° 04:04:13 10° 21° (NNE) 2,177 ? -15.2°
Sets 04:07:22 0° 359° (N) 3,100 ? -14.7°
